Regional Weather Roundup
Issued by NWS Sioux Falls, SD

Home | Current Version | Previous Version | Text Only | Print | Product List | Glossary On
Versions: 1 2 3 4 5 6 7 8 9 10 11 12 13 14 15 16 17 18 19 20 21 22 23 24 25 26 27 28 29 30 31 32 33 34 35 36 37 38 39 40 41 42 43 44 45 46 47 48 49 50
000
ASUS43 KFSD 282302
RWRFSD

WEATHER ROUNDUP FOR SE SOUTH DAKOTA/SW MINNESOTA/NW IOWA
NATIONAL WEATHER SERVICE SIOUX FALLS SD
600 PM CDT TUE JUL 28 2015

NOTE: "FAIR" INDICATES FEW OR NO CLOUDS BELOW 12,000 FEET WITH NO
SIGNIFICANT WEATHER AND OR OBSTRUCTIONS TO VISIBILITY.


SDZ038>040-050-052>070-290000-
SOUTHEAST SOUTH DAKOTA

CITY           SKY/WX    TMP DP  RH WIND       PRES   REMARKS
BROOKINGS      SUNNY     77  57  50 W17G25    29.92R
CHAMBERLAIN    SUNNY     81  46  29 W18G29    29.96S
HURON          SUNNY     80  51  36 W15G28    29.90S
MADISON        FAIR      75  54  46 W20G28    29.93R
MITCHELL       SUNNY     81  52  36 W13       29.94R
SIOUX FALLS    MOSUNNY   79  57  46 W14G20    29.93R
WINNER         FAIR      83  46  27 W16G23    29.99S
YANKTON        SUNNY     81  57  44 MISG      29.94S
$$

MNZ071-072-080-081-089-090-097-098-290000-
SOUTHWEST MINNESOTA

CITY           SKY/WX    TMP DP  RH WIND       PRES   REMARKS
FAIRMONT       CLOUDY    79  66  65 W10       29.88S
JACKSON        PTSUNNY   79  70  73 W12G17    29.91S
LUVERNE        SUNNY     79  55  44 NW10      29.95R
MARSHALL       SUNNY     79  57  47 W9        29.91R
MONTEVIDEO     SUNNY     82  63  51 W14       29.88R
PIPESTONE      SUNNY     75  57  53 W12G18    29.94R
REDWOOD FALLS  SUNNY     81  60  48 W12       29.86R
WINDOM         SUNNY     81  63  54 W9        29.90S
WORTHINGTON    SUNNY     79  61  53 W13G20    29.93R
$$

IAZ001>003-012>014-020>022-031-032-NEZ013-014-SDZ071-290000-
NORTHWEST IOWA

CITY           SKY/WX    TMP DP  RH WIND       PRES   REMARKS
DENISON        CLOUDY    75  72  88 N12G22    29.90R
ESTHERVILLE    CLOUDY    75  70  84 W10       29.90S
SIOUX CITY     CLOUDY    78  62  57 NW10      29.93S
SPENCER        CLOUDY    78  70  76 W12       29.92S
$$

ABBREVIATIONS USED IN REMARKS
   TC - TEMPERATURE IN CELSIUS
  WCI - WIND CHILL INDEX
   HX - HEAT INDEX
  VSB - VISIBILITY



USA.gov is the U.S. government's official web portal to all federal, state and local government web resources and services.